Regional Weather Roundup
Issued by NWS

Home | Current Version | Previous Version | Text Only | Print | Product List | Glossary On
Versions: 1 2 3 4 5 6 7 8 9 10 11 12 13 14 15 16 17 18 19 20 21 22 23 24 25 26 27 28 29 30 31 32 33 34 35 36 37 38 39 40 41 42 43 44 45 46 47 48 49 50
395
ASUS45 KSLC 281510
RWRUT

UTAH REGIONAL WEATHER ROUNDUP
NATIONAL WEATHER SERVICE SALT LAKE CITY UT
800 AM MST TUE FEB 28 2017

UTZ001>011-023>025-281600-

NORTHERN UTAH

CITY           SKY/WX    TMP DP  RH WIND       PRES   REMARKS
BRIGHAM CITY     N/A     22  16  80 N5        29.88R WCI  15
DUGWAY         PTCLDY     9   6  87 E5        29.90  WCI   0
HILL AFB       CLOUDY    20  15  78 E9        29.86R WCI  10
LOGAN          FOG        7   3  84 W5        29.87R VSB 1/4 WCI  -2
OGDEN          CLOUDY    22  16  78 SE6       29.86R WCI  14
SALT LAKE CITY MOCLDY    25  19  78 SE8       29.88R WCI  16
TOOELE VALLEY  PTCLDY    19  16  86 S12       29.89R WCI   7
WENDOVER       PTCLDY    25  12  58 CALM      29.88R
HEBER CITY     FLURRIES  10   7  85 E5        29.85R WCI   2
WEST JORDAN    MOCLDY    23  19  85 S7        29.88R WCI  14

$$

UTZ011>015-024>027-281600-

CENTRAL/NORTHEAST UTAH

CITY           SKY/WX    TMP DP  RH WIND       PRES   REMARKS
PROVO AIRPORT  PTSUNNY   15  13  91 E3        29.91R
MOAB/CANYONLAN CLOUDY    34  29  82 SE5       29.76R WCI  30
DELTA          CLOUDY    10   9  92 CALM      29.90R VSB<1/4
PRICE          MOSUNNY   25  10  53 N7        29.79R WCI  17
RICHFIELD      SUNNY     10  10 100 CALM      29.88
ROOSEVELT      CLOUDY    21  12  68 CALM      29.83R
VERNAL         CLOUDY    19  12  74 W6        29.81R WCI  11

$$

UTZ013>016-019>022-027-281600-

SOUTHERN UTAH

CITY           SKY/WX    TMP DP  RH WIND       PRES   REMARKS
BRYCE CANYON   MOSUNNY   22  17  81 NW12      29.78R WCI  10
CEDAR CITY     CLOUDY    24  21  88 CALM      29.85R
MILFORD        CLEAR     19  15  84 W3        29.86R
ST GEORGE      PTSUNNY   38  34  85 SE3       29.89R
HANKSVILLE     MOSUNNY   30  25  80 CALM      29.81R
KANAB          CLOUDY    34  34 100 CALM      29.88
BLANDING       CLOUDY    32  32 100 S7        29.82R VSB 1/4 WCI  26

$$

REGIONAL REPORTS     COLORADO/ARIZONA

CITY           SKY/WX    TMP DP  RH WIND       PRES   REMARKS
CRAIG, CO      CLOUDY    16  11  80 CALM      29.78R
GRAND JUNCTION LGT SNOW  28  28 100 SW3       29.79R VSB 1
RIFLE, CO      LGT SNOW  27  25  92 SW3       29.77S VSB 3/4
MONTROSE, CO   LGT SNOW  28  28 100 N8        29.76R FOG     WCI  20
CORTEZ, CO     LGT SNOW  32  32 100 SE5       29.77R FOG     WCI  27
COLORADO CITY    N/A     34  34 100 MISG      29.87R
PAGE, AZ       PTSUNNY   40  30  67 W5        29.79R
GRAND CANYON   CLOUDY    29  29 100 W6        29.84R FOG     WCI  23
KINGMAN, AZ    CLOUDY    43  34  70 W6        29.88R
FLAGSTAFF, AZ  LGT SNOW  30  28  92 SW10      29.83R FOG     WCI  21

$$

REGIONAL REPORTS    NEVADA/IDAHO/WYOMING

CITY           SKY/WX    TMP DP  RH WIND       PRES   REMARKS
LAS VEGAS, NV  MOCLDY    49  28  44 VRB5      29.89R
ELY, NY        PTCLDY     0  -5  79 S13       29.88R WCI -18
ELKO, NV       CLOUDY    23  15  71 S3        29.88R
POCATELLO, ID  LGT SNOW  22  19  89 SW13      29.82S WCI  10
BURLEY, ID     CLOUDY    29  17  61 W15       29.82R WCI  18
FORT BRIDGER,  PTSUNNY   14   7  74 SW12      29.79R WCI   0
EVANSTON, WY   FOG        7   3  84 W8        29.76R VSB 1/4 WCI  -6
ROCK SPRINGS,  CLOUDY     7   3  84 W10       29.76R WCI  -8
KEMMERER, WY     N/A    N/A N/A N/A N9        29.74R

$$




USA.gov is the U.S. government's official web portal to all federal, state and local government web resources and services.